www.pogodaiklimat.ru

Погода и климат >> Архив погоды >> Боливия >> San Matias


ПОГОДА в San Matias

  • Прогноз погоды в San Matias
  • Монитор погоды в San Matias
  • Климат города

АРХИВ ПОГОДЫ в San Matias

Время (UTC), дата Ветер
(напр.,м/с)
 
Видим.   Явления Облачность Т
(С)
Тd
(С)
f
(%)
Тe
(С)
Тes
(С)
Комфортность P
(гПа)
Po
(гПа)
Тmin
(С)
Tmax
(С)
R
(мм)
R24
(мм)
S
(см)
21 12.10 штиль 0 8000 м дым 10/0
[Ci]
+33.0 +23.7 58 +44 +46 опасность
перегрева
1007.6 996.7 +37.0
12 13.10 штиль 0 9000 м дым 10/4
[Cu hum Ci]
+27.0 +23.6 82 +37 +41 очень
душно
1014.5 1004.0 +24.0
15 13.10 Ю 3 8000 м дым 10/0
[Ci]
+33.0 +22.1 53 +42 +57 опасность
перегрева
1014.6 1004.0
18 13.10 Ю 3 8000 м дым 10/8 500 м
[Sc Ci]
+31.0 +23.0 62 +41 +43 опасность
перегрева
1011.6 1001.0
21 13.10 Ю 5 8000 м дым 10/0
[Ci]
+28.0 +21.0 66 +35 +36 очень
душно
1010.5 1000.0 +34.0
12 14.10 Ю 7 30 км 10/10 500 м
[Sc]
+19.0 +15.0 78 +20 +20 1020.5 1009.6 +18.0
15 14.10 Ю 5 30 км 10/10 500 м
[Sc]
+22.0 +15.8 68 +26 +26 душно 1021.0 1010.0
18 14.10 Ю 3 30 км ясно +26.0 +17.1 58 +30 +43 душно 1017.4 1007.0
21 14.10 Ю 3 30 км ясно +26.0 +18.8 65 +31 +32 очень
душно
1016.0 1006.0 +28.0
12 15.10 Ю 3 30 км ясно +21.5 +16.2 72 +25 +31 комфорт 1020.0 1008.7 +18.0
15 15.10 Ю 3 30 км ясно +28.0 +17.7 54 +32 +51 опасность
солнечного
удара
1019.5 1008.0
18 15.10 штиль 0 30 км ясно +34.0 +19.2 42 +39 +61 опасность
солнечного
удара
1015.0 1005.0
12 16.10 штиль 0 30 км ясно +24.0 +21.2 84 +30 +39 очень
душно
1017.0 1006.0 +21.0
15 16.10 штиль 0 30 км ясно +33.0 +23.6 58 +44 +72 опасность
перегрева
1015.5 1005.0
18 16.10 штиль 0 30 км ясно +38.0 +21.8 39 +46 +68 опасность
перегрева
1011.6 1001.0
21 16.10 штиль 0 30 км ясно +37.5 +20.4 37 +43 +46 опасность
перегрева
1009.6 999.0 +40.0
12 17.10 штиль 0 30 км ясно +25.0 +21.5 81 +32 +41 очень
душно
1015.4 1005.0 +21.0
15 17.10 С 5 9000 м дым 9/0 2000 м
[As op]
+32.0 +22.5 57 +41 +44 опасность
перегрева
1015.5 1005.0
18 17.10 С 4 8000 м дым ясно +37.0 +22.1 42 +45 +56 опасность
перегрева
1011.6 1001.0
21 17.10 С 5 8000 м дым ясно +38.5 +21.6 38 +46 +47 опасность
перегрева
1010.0 1000.0 +39.0
12 18.10 штиль 0 8000 м дым ясно +27.0 +20.7 68 +34 +43 очень
душно
1015.0 1005.0 +22.0
15 18.10 С 4 8000 м дым ясно +33.0 +22.9 55 +43 +57 опасность
перегрева
1014.5 1004.0
18 18.10 С 6 8000 м дым 3/3 600 м
[Cu hum]
+39.0 +20.5 34 +45 +49 опасность
перегрева
1010.6 1000.0
21 18.10 С 3 8000 м дым 8/4 600 м
[Cu hum Ci]
+38.0 +18.2 31 +41 +42 опасность
перегрева
1008.4 997.0 +41.0
12 19.10 штиль 0 8000 м дым ясно +26.0 +20.3 71 +32 +41 очень
душно
1011.6 1002.8 +22.0
15 19.10 С 6 8000 м дым 3/3 600 м
[Cu hum]
+38.0 +20.9 37 +44 +50 опасность
перегрева
1012.5 1002.0

 

Местоположение метеостанции San Matias (Боливия): широта -16.33 долгота -58.38 высота над уровнем моря 124 м.

В архиве по умолчанию представлена погода в San Matias за последнюю неделю. Архивные данные за месяц целиком и за предыдущие месяцы, начиная с января 2011 года, Вы можете получить, выбрав интересующий диапазон дат из раскрывающегося списка и нажав кнопку "Ввод!".

Внимание! Время в таблицах - всемирное. Для получения местного времени необходимо прибавить поправку, которая в San Matias равна -4 ч.

Смотрите также архив погоды в соседних городах и на ближайших метеорологических станциях:

Погода в Caceres (Бразилия) (81 км)
Погода в Cuiaba (Бразилия) (255 км)
Погода в Robore (Боливия) (265 км)
Погода в San Ignacio De Vela (Боливия) (275 км)
Погода в Diamantino (Бразилия) (298 км)
Погода в San Jose De Chiquit (Боливия) (299 км)
Погода в Puerto Suarez (Боливия) (301 км)
Погода в Concepcion (Боливия) (388 км)
Погода в Poxoreo (Бразилия) (431 км)
Погода в San Javier (Боливия) (436 км)

Пояснения к столбцам:

Ветер - указаны скорость ветра в м/с - средняя за 10 мин, порывы в срок и между сроками (в фигурных скобках) и направление, откуда дует ветер: С - северный, СВ - северо-восточный, В - восточный, ЮВ - юго-восточный, Ю - южный, ЮЗ - юго-западный, З - западный, СЗ - северо-западный.
Видимость - горизонтальная дальность видимости в метрах или километрах. При видимости от 1 до 10 км при отсутствии осадков обычно наблюдается дымка, при ухудшении видимости до 1 км и менее - туман. В сухую погоду видимость может ухудшаться дымом, пылью или мглою.
Явления - указаны атмосферные явления, наблюдавшиеся в срок или в последний час перед сроком; фигурными скобками обозначены явления, наблюдавшиеся между сроками (за 1-3 часа до срока); квадратными скобками обозначены град или гололедные отложения с указанием их диаметра в мм.
Облачность - указаны через наклонную черту общая и нижняя облачность в баллах и высота нижней границы облаков в метрах; квадратными скобками обозначены формы облаков: Ci - перистые, Cs - перисто-слоистые, Cc - перисто-кучевые, Ac - высококучевые, As - высокослоистые, Sc - слоисто-кучевые, Ns - слоисто-дождевые, Cu - кучевые, Cb - кучево-дождевые. Подробнее классификацию облаков см. в Атласе облаков (PDF).
T - Температура воздуха - температура, измеренная на высоте 2 м над землей.
Td - Температура точки росы - температура, при понижении до которой содержащийся в воздухе водяной пар достигнет насыщения.
f - Относительная влажность воздуха - влажноcть воздуха, измеренная на высоте 2 м над землей.
Te - Эффективная температура - температура, которую ощущает одетый по сезону человек в тени. Характеристика душности погоды. При расчете учитывается влияние влажности воздуха и скорости ветра на теплоощущения человека.
Tes - Эффективная температура на солнце - температура, которую ощущает человек, с поправкой на солнечный нагрев. Характеристика знойности погоды. Зависит от высоты солнца над горизонтом, облачности и скорости ветра. Ночью, в пасмурную погоду, а также при ветре 12 м/с и более поправка равна нулю.
P - Атмосферное давление - приведенное к уровню моря атмосферное давление.
Po - Атмосферное давление - измеренное на уровне метеостанции атмосферное давление.
Tmin - Минимальная температура - минимум температуры воздуха на высоте 2 м над землей.
Tmax - Максимальная температура - максимум температуры воздуха на высоте 2 м над землей.
R - Количество осадков - Количество выпавших осадков за период времени, мм. При наведении курсора мыши на число - период времени, за который выпало указанное количество осадков.
R24 - Количество осадков - Количество выпавших осадков за 24 часа, мм.
S - Снежный покров - Высота снежного покрова, см. При наведении курсора мыши на число - состояние снежного покрова и степень покрытия местности в баллах.